Tracking 17855 objects as of 26-September-2016
HD Live streaming from Space Station
objects crossing your sky now

ARTEMIS

Track ARTEMIS now!
ARTEMIS is classified as:


NORAD ID: 26863
Int'l Code: 2001-029A
Perigee: 35,727.5 km
Apogee: 35,766.8 km
Inclination: 12.4 °
Period: 1,433.7 minutes
Semi major axis: 42118 km
RCS: 10 m2 (large)
Launch date: July 12, 2001
Source: European Space Agency (ESA)
Launch site: FRENCH GUIANA (FRGUI)

An 18-month rescue mission recovered the satellite; develop European capabilities in satellite communications; test new technologies; support development of European navigation system (EGNOS, c. 2010).
Your satellite tracking list
Your tracking list is empty





NASA's NSSDC Master Catalog

Two Line Element Set (TLE):
1 26863U 01029A   16269.81125043 -.00000333 +00000-0 +00000-0 0  9995
2 26863 012.4441 035.8575 0004659 172.9230 183.9944 01.00438285008539
Source of the keplerian elements: AFSPC

N2YO: 550